ASD Ciclistica Montoriese – Cronoscalata della Pissarotta 11


Dopo il buon esito della festa sociale la ASD Ciclistica Montoriese non si ferma nemmeno per le vacanze estive e continua a lavorare per una nuova sfida: una cronoscalata per il vajo Squaranto!

SEI INVITATO A PARTECIPARE!

L’evento si terrà il 9 Settembre 2017, quindi hai a disposizione i mesi estivi per prepararti; se poi ti iscrivi entro il 31 Luglio… c’è pure lo sconto!

Per qualsiasi informazione puoi scriverci all’indirizzo e-mail ciclisticamontoriesevr@gmail.com o passare a trovarci in sede (presso il Circolo 1° Maggio) la domenica mattina.

Qui di seguito trovi le informazioni relative all’evento e la descrizione del percorso, nonché i moduli di iscrizione per singolo atleta e per squadra:

Cronoscalata Facebook (info volantino)

ModuloCronoscalataIndividuale_ONLINE

ModuloCronoscalataSquadra_ONLINE 

#asdciclisticamontoriese #verdoni

INFO UTILI :

1-il chip sarà distribuito la mattina della gara (arrivare per tempo in località Confin, alla partenza) per riceverlo sarà  OBBLIGATORIO presentare il tesserino sportivo/documento identità, il tesserino sarà restituito a fine gara alla riconsegna del chip. 

Colazione possibile presso il bar della locanda “Le Piere Confin”.

2-il pacco gara sarà ritirabile presso la sede della Montoriese (in via Lanificio 60a vicino al circolo Primo Maggio) giovedì 7 settembre dalle 21.00 alle 22.30 e il 09/09 prima della gara dalle 7.30 alle 8.30. Oppure post gara a Roverè. Infine domenica 10/09 sempre presso la sede della Montoriese dalle 11.00 alle 13.00 .

3-ordine di partenza: sarà disponibile alla chiusura delle iscrizioni, la partenza sarà a 1 minuto di distanza tra atleta e atleta secondo le categorie ACSI (woman B, woman A, supergentleman 2, supergentleman 1, gentleman 2 , gentleman 1… ecc in ordine alfabetico per categoria) .

4-premiazioni e pasta party: al termine della gara saranno svolte le premiazioni presso il tendone allestito dopo l’arrivo a Roverè. Nel tendone saranno in funzione stand gastronomici e si svolgerà il pasta party per tutti gli atleti. 

5- suggeriamo di usare, per chi viene in auto, i parcheggi a Montorio (zona industriale), Mizzole o a Pigozzo e poi far i pochi Km che portano alla località Confin in bici per “scaldare” le gambe.

6- non è previsto il servizio di trasporto borse all’arrivo ne docce… per il 2018 ci attrezzeremo!

7- è OBBLIGATORIO l’uso del caschetto! le strade saranno controllate da personale MA va rispettato il codice stradale!

8- NON vanno buttati a terra eventuali gel/barrette/cartacce varie pena la squalifica dalla gara.

9 – Elenco partenze con orario indicativo SOLO la direzione di gara potrà ritardare o gestire le partenze per eventuali necessità, gli atleti dovranno farsi trovare pronti (numero e chip su bici) qualche minuto prima della propria partenza.

——-  ELENCO ISCRITTI CON ORARIO PREVISTO DI PARTENZA——————————-

 

pettoralecognome nomeanno categoriatesserasocieta orario
1agosti miriam1970DOB7911045damil-saby 9:30:00
2albanese silvia1976DOBAT-0371970816/17ASD sant luis zen 9:31:00
3aldegheri elena1965DOB7916440Pol.Unicredit 9:32:00
4de paoli petra1976DOB3718533ASD rana tagliaro 9:33:00
5magrella federica1974DOB7932613turnover sport 9:34:00
6mondi annalisa1967DOB832645sGS praseccobiesse 9:35:00
7rigo francesca1970DOB7912802gs ambrosiana 9:36:00
8turri cristina1973DOBAT-03725433Just bike team ASD 9:37:00
        
9bertinato gian antonio1948SGBgiornalieraNA 9:38:00
10montioli fernando1949SGB7922554Albertz cycling team 9:39:00
88pattaro gianfranco1948SGB7914371ASD tagliaro 9:40:00
11valbusa fargio1948SGB7901639asd sc formigosa MN 9:41:00
12valentini silvano1952SGB7931476bici e sport 9:42:00
        
13belloni dario1956SGA7944106bennati bellitalia vianello 9:43:00
14bonetti giovanni1957SGA7912718GS ambrosiana 9:44:00
15cavalli gianfranco1956SGA7901633asd sc formigosa MN 9:45:00
16fava fausto1953SGA7901635ASD formigosa 9:46:00
17frigeri claudio1953SGA7901636asd sc formigosa MN 9:47:00
18huber marco1957SGA7918693cicli de rossi zuccato 9:48:00
19Merzi pierangelo1950SGAAT-03719539Just bike team ASD 9:49:00
20rudatis gianni1955SGA7929109turnover sport 9:50:00
        
21attolini filippo1959GEBAT-03718498ASD TEAM rana tagliaro 9:51:00
22de paoli paolo1960GEB7916441Pol.Unicredit 9:52:00
23innocenzi fabio1961GEB7941332ASD cicli tagliaro 9:53:00
24lizzadro antonio1961GEB171272539WWB ASD 9:54:00
25piccini massimo1961GEB2527400  9:55:00
26predaroli roberto1959GEB7902516SSDRL biemme garda sport 9:56:00
27stagnoli leonardo1958GEBAT-0371972016/17ASD sant luis zen 9:57:00
28tommasi gianluca1958GEB912967Mteam todesco 9:58:00
29vandesalici  gianluca1961GEBAT-03723552Cicli fontana ASD 9:59:00
        
30bazzi luigi massimo1967GEA3721776traguardo volante racing 10:00:00
31bonfante lucio1963GEA947516Lteam todesco 10:01:00
32bussola giancarlo1966GEA7936239ASD highroad 10:02:00
33castelletti gabriele1967GEAat-03721616dieffe bici 10:03:00
34comparini stefano1964GEAAT-03723662Teste di marmo ASD 10:04:00
35fiorentini nicola1966GEA7938814ASD Avesani Nicola 10:05:00
36giobelli luca1964GEA3722067revolution mtb 10:06:00
37girlanda nicola1967GEA7923803happy bikers 10:07:00
38libelli silvano1964GEA938376FP race 10:08:00
39marinozzi massimo1965GEAat-03719657polisportiva caselle ASD 10:09:00
40parise alberto1966GEA7904479team lnc jolliwear 10:10:00
41sambugaro giuseppe1964GEAgiornalieraN.A. 10:11:00
42venturini roberto1965GEAat-03719655polisportiva caselle ASD 10:12:00
        
43anselmi mauro1971VEB793814gsa zero wind 10:13:00
44antolini simone1971VEB7926062ASD ciclistica Montoriese  10:14:00
45barbera salvatore1968VEB7919970ASD SPKCycling 10:15:00
46bonomi matteo1971VEB7926068ASD ciclistica montoriese 10:16:00
47campana massimo1970VEB7903675ASD formigosa 10:17:00
48canuti andrea1971VEB7932522grandis racing team 10:18:00
49dell’eva ivan peter1971VEB7939176team executive 10:19:00
50fogiazzi fabio1968VEB2527388  10:20:00
51girelli alessio1972VEB7903762team lnc jolliwear 10:21:00
52maisto rocco1971VEBat-03719656polisportiva caselle ASD 10:22:00
53marotti cosimo1970VEBat-03726032polisportiva caselle ASD 10:23:00
54melchiori alessandro1970VEB7912782gs ambrosiana 10:24:00
55palvarini massimo1969VEB7926076ASD CICLISTICA MONTORIESE 10:25:00
56poli mirko1971VEB7935490turnover sport 10:26:00
57sartori claudio1969VEBA006774ASD Butty 10:27:00
58sartori tiziano1968VEB853030WASD Butty 10:28:00
59vaccaretto gianni1969VEB7926080ASD CICLISTICA MONTORIESE 10:29:00
60zenari stefano1969VEB7926082ASD CICLISTICA MONTORIESE 10:30:00
        
61andrioli corrado1976VEA7926061ASD CICLISTICA MONTORIESE 10:31:00
62benedetti luca1973VEA7926064ASD CICLISTICA MONTORIESE 10:32:00
63bonetti michele1976VEA7926067ASD CICLISTICA MONTORIESE 10:33:00
64dusi leonardo sergio1976VEAgiornalieraASD CICLISTICA MONTORIESE 10:34:00
65fattori alberto bila1973VEA7941808turnover sport 10:35:00
66ferrari davide1973VEA7902848ste max team 10:36:00
67fontana isacco1975VEA3719680TOP TEAM RACE 10:37:00
68gambuti francesco1975VEA3722071revolution mtb 10:38:00
69garfi missimiliano1975VEA3718544ASD rana tagliaro 10:39:00
70morello massimo1973VEA7917994omap bike team 10:40:00
71moretti franco1974VEA7942439ASD CICLISTICA MONTORIESE 10:41:00
72nicolini massimiliano1974VEAA108635team bonetti 10:42:00
73pavoni cesare1974VEA7903298asd avesani 10:43:00
74pezzo andrea1973VEA953416NFocus Xc italy team 10:44:00
75rama zeno1973VEAAT-03719542Just bike team ASD 10:45:00
76rossi emanuele1977VEA7925967AS FM Cycling Team 10:46:00
77signorini andrea sginsa1973VEA7933046turnover sport 10:47:00
78staltari andrea1973VEAgiornalieraN.A. 10:48:00
79tinelli  flavio1976VEA7921477HIGHROAD Bike team 10:49:00
80ventura angelo gabriele1976VEA7929365turnover sport 10:50:00
81zanella emanuele1975VEA7904889ornello team bike 10:51:00
106zotti fabio1973VEAa103375team f. magni flandres love 10:52:00
        
82begnini antonio1982SEBAT-03716830SC lupatotina 10:53:00
83bianchi daniele nene1978SEB7926057ASD CICLISTICA MONTORIESE 10:54:00
84bonani aldo1979SEB7939173team executive 10:55:00
85foti giovanni1981SEB7928902gs ambrosiana 10:56:00
86fumaneri manuel1982SEBat03725404team dieffe bici 10:57:00
87meli aurelio1978SEB7932619turnover sport 10:58:00
89piazza andrea1979SEBa108643Butty 10:59:00
90salzani fabio1978SEBAT-03719695TOP TEAM RACE 11:00:00
91speri paride1982SEBa093945general store bottoli zardini 11:01:00
92trevisan marco1979SEB7907636HIGHROAD Bike team 11:02:00
        
93albertini matteo1986SEAat-03725782traguardo volante racing 11:03:00
94ceriani luca1986SEAA081645Alé Cipollini 11:04:00
95giordano enrico1984SEAa013793asd team syntec-omap 11:05:00
96mazzola mario1987SEA1353488xc verona 11:06:00
97signorini francesco1985SEAA112638team todesco 11:07:00
98venturi diego1984SEAA107983Alè cipollini 11:08:00
        
99attolini michele1989JUN7919352HIGHROAD Bike team 11:09:00
100belloni marco1994JUN7927066bennati bellitalia vianello 11:10:00
101coati francesco1989JUNAT-03717356Olimpica dossobuono 11:11:00
102magon davide1990JUNA104359Alè cipollini 11:12:00
103motalli fabio1991JUNa125399focus XC italy 11:13:00
104zanrossi riccardo1994JUNAT-03718606ASD team rana tagliaro 11:14:00
105zumerle marco1996JUN938394ASD FP RACE 11:15:00
        
 Giorgio furlan  apripista   
 Damiano cunego  fine gara   

Lascia un commento

Il tuo indirizzo email non sarà pubblicato. I campi obbligatori sono contrassegnati *

Time limit is exhausted. Please reload CAPTCHA.

Questo sito usa Akismet per ridurre lo spam. Scopri come i tuoi dati vengono elaborati.

11 commenti su “ASD Ciclistica Montoriese – Cronoscalata della Pissarotta